Showing default

POSAT 1, 22829

Orbit data source: Space-Track

POSAT 1, 22829 is a payload satellite owned by INETI (PT) in SSO that was launched on Sun, 26 Sep 1993 UTC via an ARIANE 40 launch vehicle from the French Guiana (FRGUI). Payload-class satellites include a variety of spacecraft equipped with specific instruments for various scientific and technological missions. These include communications satellites like Starlink; space stations such as the ISS; scientific satellites like the Hubble; Earth observation satellites from companies like Planet Labs, Umbra, and HawkEye 360; GPS; miniature CubeSats for education and research; and military/defense satellites.

Loading next visibility...
Identifier
22829, 1993-061G
Orbit
SSO
Country
Flag of PTPT / POR
Related business
Manufacturer
SSTL
Mission
Non-operational Amateur Communications
Bus & Motor
UOSAT, Unknown motor
Mass
50 kg wet, 50 kg dry
Launch date (UTC)
1993-09-26 (32 years ago)
Launch vehicle
ARIANE 40
Launch site
French Guiana (FRGUI)
Object type
Payload
Rocket body
Debris
Shape & HBR
Box + 1 Ant, 3.3 m
Radar Cross Section
0.597 m², Medium (>0.1 m² and < 1m²)

Expand to show TLE details & history
Last TLE update: 9 hours ago

TLE from 9 hours ago
0 POSAT 1
1 22829U 93061G   25298.70820961  .00000183  00000-0  85253-4 0  9990
2 22829  98.6987   0.7332 0009687   5.7847 354.3446 14.31826371674493
Epoch: 2025-10-25T16:59Z
TLE epoch observation values (Epoch: 2025-10-25T16:59:49.310Z)
Latitude
-0.00004°
Longitude
71.44287°
Altitude
781.656 km
Speed
7.467 km/s
True Right ascension
00h 02m 55s
True Declination
0° 00' 00"
Sunlit
Object was in full shadow at epoch
Visualization orbit readout
Latitude
Unknown
Longitude
Unknown
Altitude
Unknown
Speed
Unknown
Apparent Right ascension
Unknown
Apparent Declination
Unknown
Sunlit
N/A
Visualization observer readout
Local Sidereal Time
21:19:44
Azimuth
Unknown
Elevation
Unknown
Doppler factor
Unknown
Orbital elements
Apogee altitude
789.712 km
Perigee altitude
775.838 km
Semi-major axis
7,160.912 km
Eccentricity
0.00097
Inclination
98.6987°
RAAN
0.7332°
Arg. of periapsis
5.7847°
True anomaly
354.33365°
Mean anomaly
354.3446°
Eccentric anomaly
354.33913°
Mean motion
3.58171 °/min
Orbital period
100.51 mins
BSTAR
0.000085253
Loading maneuver chart data...
Computing Atmospheric mass density...
Loading historical data...
Loading historical data...
Loading historical data...
Loading historical data...
Loading historical data...
Loading historical data...
Loading historical data...

Documentation

Showing up to 5 results
|